This is the latest recevied weather packets stored in our database for station/object DW9280. If no packets are shown the sender has not sent any weather packets the latest 10 day(s).
| Time | Temp. | Humidity | Pressure | Rain* | Wind** | Luminosity | Snow |
|---|---|---|---|---|---|---|---|
| 1787558887 | 17.78° C | 76% | 1023.6 hPa | 0 mm | - | 443 W/m² | - |
| 1787558587 | 17.78° C | 77% | 1023.6 hPa | 0 mm | - | 378 W/m² | - |
| 1787558412 | 17.22° C | 79% | 1023.7 hPa | 0 mm | - | 325 W/m² | - |
| 1787557989 | 17.22° C | 79% | 1023.7 hPa | 0 mm | - | 302 W/m² | - |
| 1787557688 | 16.67° C | 80% | 1023.7 hPa | 0 mm | - | 301 W/m² | - |
| 1787557514 | 16.67° C | 81% | 1023.6 hPa | 0 mm | - | 308 W/m² | - |
| 1787557120 | 16.11° C | 82% | 1023.7 hPa | 0 mm | - | 306 W/m² | - |
| 1787556912 | 16.11° C | 83% | 1023.7 hPa | 0 mm | - | 220 W/m² | - |
| 1787556486 | 15.56° C | 85% | 1023.8 hPa | 0 mm | - | 114 W/m² | - |
| 1787556188 | 15.56° C | 86% | 1023.8 hPa | 0 mm | - | 127 W/m² | - |
| 1787555888 | 15° C | 88% | 1023.8 hPa | 0 mm | - | 192 W/m² | - |
| 1787555587 | 15° C | 89% | 1023.8 hPa | 0 mm | - | 149 W/m² | - |
| 1787555412 | 14.44° C | 91% | 1023.8 hPa | 0 mm | - | 67 W/m² | - |
| 1787554988 | 13.89° C | 92% | 1023.7 hPa | 0 mm | - | 46 W/m² | - |
| 1787554688 | 13.89° C | 92% | 1023.7 hPa | 0 mm | - | 42 W/m² | - |
| 1787554388 | 13.89° C | 93% | 1023.8 hPa | 0 mm | - | 257 W/m² | - |
| 1787554088 | 13.33° C | 94% | 1023.8 hPa | 0 mm | - | 84 W/m² | - |
| 1787553788 | 13.33° C | 94% | 1023.7 hPa | 0 mm | - | 83 W/m² | - |
| 1787553611 | 12.78° C | 94% | 1023.7 hPa | 0 mm | - | 39 W/m² | - |
| 1787553188 | 12.78° C | 94% | 1023.8 hPa | 0 mm | - | 42 W/m² | - |
| 1787552888 | 12.78° C | 94% | 1023.8 hPa | 0 mm | - | 47 W/m² | - |
| 1787552588 | 12.78° C | 94% | 1023.8 hPa | 0 mm | - | 81 W/m² | - |
| 1787552288 | 12.22° C | 95% | 1023.8 hPa | 0 mm | - | 46 W/m² | - |
| 1787552112 | 12.22° C | 95% | 1023.8 hPa | 0 mm | - | 42 W/m² | - |
| 1787551688 | 12.22° C | 95% | 1023.8 hPa | 0 mm | - | 42 W/m² | - |
* Rain latest hour (hover to see other rain measurements)
** Current wind speed in m/s (hover to see current wind gust speed)